Big Rapids, MI

11:40 AM EDT on September 22, 2017 (GMT -0400)
Roben-Hood

Weather History for KRQB - January, 2013

Change the Weather History Date:

Thursday, January 10, 2013

  Actual Average Record
Temperature  
Mean Temperature 30 °F -  
Max Temperature 42 °F 26 °F 51 °F (1975)
Min Temperature 18 °F 10 °F -12 °F (1988)
Degree Days  
Heating Degree Days 35    
Moisture  
Dew Point 23 °F    
Average Humidity 74    
Maximum Humidity 96    
Minimum Humidity 45    
Precipitation  
Precipitation 0.00 in - - ()
Sea Level Pressure  
Sea Level Pressure 30.37 in    
Wind  
Wind Speed 3 mph (SE)    
Max Wind Speed 12 mph    
Max Gust Speed 20 mph    
Visibility 10 miles    
Events Rain , Snow    
Averages and records for this station are not official NWS values.
T = Trace of Precipitation, MM = Missing Value Source: NWS Daily Summary

Daily Weather History Graph

Daily Weather History Graph

Search for Another Location

Airport or City:

Trip Planner

Search our weather history database for the weather conditions in past years. The results will help you decide how hot, cold, wet, or windy it might be!

Date:

Astronomy

Jan. 10, 2013 Rise Set
Actual Time 8:14 AM EST 5:25 PM EST
Civil Twilight 7:42 AM EST 5:57 PM EST
Nautical Twilight 7:06 AM EST 6:33 PM EST
Astronomical Twilight 6:32 AM EST 7:07 PM EST
Moon 6:53 AM EST (1/10) 4:32 PM EST (1/10)
Length of Visible Light 10h 14m
Length of Day
9h 10m
Waning Crescent, 2% of the Moon is Illuminated
Jan 10
Waning Crescent
Jan 11
New
Jan 18
First Quarter
Jan 26
Full
Feb 3
Last Quarter

Hourly Weather History & Observations

Time (EST) Temp. Windchill Dew Point Humidity Pressure Visibility Wind Dir Wind Speed Gust Speed Precip Events Conditions
12:14 AM 28.9 °F - 22.1 °F 76% 30.37 in 10.0 mi Calm Calm - N/A   Clear
12:35 AM 30.2 °F 26.7 °F 23.2 °F 75% 30.37 in 10.0 mi NNE 3.5 mph - N/A   Clear
12:54 AM 27.9 °F 22.6 °F 21.6 °F 77% 30.37 in 10.0 mi NNE 4.6 mph - N/A   Clear
1:14 AM 26.6 °F - 21.4 °F 81% 30.39 in 10.0 mi Calm Calm - N/A   Clear
1:35 AM 23.7 °F - 18.5 °F 80% 30.41 in 10.0 mi Calm Calm - N/A   Clear
1:54 AM 23.5 °F - 20.3 °F 87% 30.41 in 10.0 mi Calm Calm - N/A   Clear
2:14 AM 23.4 °F - 20.5 °F 89% 30.44 in 10.0 mi Calm Calm - N/A   Clear
2:35 AM 24.8 °F - 23.0 °F 93% 30.46 in 10.0 mi Calm Calm - N/A   Clear
2:54 AM 26.4 °F - 24.6 °F 93% 30.48 in 10.0 mi Calm Calm - N/A   Clear
3:14 AM 27.1 °F - 24.8 °F 91% 30.48 in 10.0 mi Calm Calm - N/A   Clear
3:34 AM 27.5 °F 22.2 °F 25.7 °F 93% 30.48 in 10.0 mi ESE 4.6 mph - N/A   Clear
3:54 AM 23.5 °F - 21.6 °F 92% 30.47 in 10.0 mi Calm Calm - N/A   Clear
4:14 AM 23.5 °F - 21.7 °F 93% 30.48 in 10.0 mi Calm Calm - N/A   Clear
4:34 AM 21.2 °F - 19.2 °F 92% 30.48 in 10.0 mi Calm Calm - N/A   Clear
4:54 AM 21.4 °F - 19.8 °F 93% 30.48 in 10.0 mi Calm Calm - N/A   Clear
5:15 AM 22.5 °F - 21.2 °F 95% 30.47 in 10.0 mi Calm Calm - N/A   Clear
5:34 AM 19.9 °F - 18.3 °F 93% 30.48 in 10.0 mi Calm Calm - N/A   Clear
5:54 AM 20.8 °F - 19.4 °F 94% 30.47 in 10.0 mi Calm Calm - N/A   Clear
6:14 AM 18.1 °F - 15.8 °F 91% 30.49 in 10.0 mi Calm Calm - N/A   Clear
6:34 AM 19.4 °F - 17.6 °F 93% 30.49 in 10.0 mi Calm Calm - N/A   Clear
6:54 AM 20.3 °F - 19.2 °F 96% 30.50 in 10.0 mi Calm Calm - N/A   Clear
7:14 AM 19.4 °F - 18.0 °F 94% 30.49 in 10.0 mi Calm Calm - N/A   Clear
7:34 AM 18.1 °F - 16.0 °F 91% 30.50 in 10.0 mi Calm Calm - N/A   Clear
7:54 AM 18.5 °F - 16.9 °F 93% 30.50 in 10.0 mi Calm Calm - N/A   Clear
8:34 AM 19.4 °F - 18.0 °F 94% 30.49 in 10.0 mi Calm Calm - N/A   Clear
8:55 AM 19.0 °F - 17.2 °F 93% 30.50 in 10.0 mi Calm Calm - N/A   Clear
9:14 AM 18.7 °F - 16.7 °F 92% 30.49 in 10.0 mi Calm Calm - N/A   Clear
9:34 AM 20.5 °F 15.6 °F 18.0 °F 90% 30.49 in 10.0 mi SSW 3.5 mph - N/A   Clear
10:14 AM 24.3 °F - 22.6 °F 94% 30.49 in 10.0 mi Calm Calm - N/A   Clear
10:35 AM 28.8 °F - 24.1 °F 83% 30.49 in 10.0 mi Calm Calm - N/A   Clear
10:54 AM 31.8 °F - 23.4 °F 71% 30.49 in 10.0 mi Calm Calm - N/A   Clear
11:15 AM 32.4 °F - 24.6 °F 73% 30.48 in 10.0 mi Calm Calm - N/A   Clear
11:34 AM 35.8 °F - 25.3 °F 66% 30.46 in 10.0 mi Calm Calm - N/A   Clear
11:54 AM 37.2 °F - 24.8 °F 61% 30.45 in 10.0 mi Calm Calm - N/A   Clear
12:15 PM 39.2 °F 34.2 °F 24.4 °F 56% 30.43 in 10.0 mi South 6.9 mph - N/A   Clear
12:34 PM 39.9 °F 34.5 °F 24.3 °F 54% 30.43 in 10.0 mi South 8.1 mph - N/A   Clear
1:14 PM 41.2 °F 35.5 °F 23.5 °F 50% 30.40 in 10.0 mi SSE 9.2 mph - N/A   Clear
1:34 PM 41.5 °F 35.4 °F 23.2 °F 48% 30.38 in 10.0 mi SSE 10.4 mph 16.1 mph N/A   Clear
1:54 PM 41.2 °F 35.5 °F 23.4 °F 49% 30.37 in 10.0 mi SSE 9.2 mph - N/A   Clear
2:14 PM 41.9 °F 36.9 °F 22.8 °F 47% 30.35 in 10.0 mi ESE 8.1 mph - N/A   Clear
2:35 PM 42.6 °F 37.2 °F 22.6 °F 45% 30.35 in 10.0 mi SE 9.2 mph - N/A   Clear
2:54 PM 41.9 °F 36.3 °F 23.0 °F 47% 30.35 in 10.0 mi SE 9.2 mph - N/A   Clear
3:14 PM 41.5 °F 35.4 °F 22.8 °F 47% 30.34 in 10.0 mi SE 10.4 mph - N/A   Clear
3:34 PM 41.4 °F 36.2 °F 22.3 °F 47% 30.34 in 10.0 mi ESE 8.1 mph - N/A   Clear
3:54 PM 41.0 °F 36.4 °F 23.2 °F 49% 30.33 in 10.0 mi SE 6.9 mph - N/A   Clear
4:15 PM 40.5 °F 35.8 °F 23.9 °F 52% 30.32 in 10.0 mi SE 6.9 mph - N/A   Clear
4:34 PM 40.5 °F 35.8 °F 24.6 °F 53% 30.32 in 10.0 mi ESE 6.9 mph - N/A   Clear
4:54 PM 40.1 °F 36.1 °F 25.2 °F 55% 30.31 in 10.0 mi ESE 5.8 mph - N/A   Clear
5:15 PM 39.6 °F 35.4 °F 25.7 °F 58% 30.31 in 10.0 mi SE 5.8 mph - N/A   Clear
5:34 PM 39.4 °F 36.1 °F 25.5 °F 58% 30.30 in 10.0 mi ESE 4.6 mph - N/A   Clear
5:54 PM 38.8 °F 34.6 °F 25.7 °F 59% 30.28 in 10.0 mi ESE 5.8 mph - N/A   Clear
6:14 PM 38.5 °F 33.4 °F 25.7 °F 60% 30.28 in 10.0 mi SE 6.9 mph - N/A   Clear
6:34 PM 38.5 °F 34.1 °F 25.7 °F 60% 30.27 in 10.0 mi ESE 5.8 mph - N/A   Clear
6:55 PM 38.3 °F 32.5 °F 26.1 °F 61% 30.27 in 10.0 mi SE 8.1 mph - N/A   Clear
7:14 PM 38.1 °F 32.3 °F 26.2 °F 62% 30.26 in 10.0 mi ESE 8.1 mph - N/A   Clear
7:34 PM 37.8 °F 32.5 °F 26.2 °F 63% 30.25 in 10.0 mi SE 6.9 mph - N/A   Clear
7:55 PM 37.9 °F 32.7 °F 26.2 °F 63% 30.25 in 10.0 mi SSE 6.9 mph - N/A   Clear
8:14 PM 37.8 °F 31.8 °F 26.4 °F 64% 30.22 in 10.0 mi SE 8.1 mph - N/A   Clear
8:34 PM 37.9 °F 31.5 °F 25.7 °F 61% 30.22 in 10.0 mi SE 9.2 mph - N/A   Clear
8:55 PM 37.9 °F 32.7 °F 25.7 °F 61% 30.21 in 10.0 mi SE 6.9 mph - N/A   Clear
9:14 PM 38.3 °F 31.4 °F 25.0 °F 59% 30.19 in 10.0 mi SE 10.4 mph 18.4 mph N/A   Mostly Cloudy
9:55 PM 38.3 °F 31.4 °F 24.8 °F 58% 30.16 in 10.0 mi SE 10.4 mph 17.3 mph N/A Rain Light Rain
10:14 PM 37.0 °F 29.3 °F 27.1 °F 67% 30.14 in 10.0 mi SE 11.5 mph 16.1 mph N/A Rain Light Rain
10:34 PM 36.0 °F 28.5 °F 28.9 °F 76% 30.13 in 4.0 mi SE 10.4 mph 19.6 mph N/A Snow Light Snow
10:55 PM 35.1 °F 26.9 °F 30.6 °F 84% 30.11 in 4.0 mi SE 11.5 mph 19.6 mph N/A Snow Light Snow
11:14 PM 34.9 °F 27.7 °F 31.5 °F 87% 30.09 in 5.0 mi SE 9.2 mph - N/A Snow Light Snow
11:34 PM 34.9 °F 27.7 °F 32.4 °F 91% 30.07 in 5.0 mi ESE 9.2 mph - N/A Snow Light Snow
11:55 PM 34.9 °F 27.1 °F 32.5 °F 91% 30.06 in 5.0 mi SE 10.4 mph - N/A   Overcast